Weather History for Exeter, United Kingdom

Change the Weather History Date:

Tuesday, August 27, 2013

  Actual Average Record
Temperature  
Mean Temperature 65 °F -  
Max Temperature 78 °F 64 °F 78 °F (2013)
Min Temperature 52 °F 49 °F 41 °F (1998)
Growing Degree Days 15 (Base 50)    
Moisture  
Dew Point 56 °F    
Average Humidity 74    
Maximum Humidity 100    
Minimum Humidity 32    
Precipitation  
Precipitation 0.00 in - - ()
Sea Level Pressure  
Sea Level Pressure 30.08 in    
Wind  
Wind Speed 5 mph ()    
Max Wind Speed 14 mph    
Max Gust Speed -    
Visibility 4.3 miles    
Events Fog    
Averages and records for this station are not official NWS values.
T = Trace of Precipitation, MM = Missing Value Source: Averaged Metar Reports

Daily Weather History Graph

Daily Weather History Graph

Search for Another Location

Airport:

Trip Planner

Search our weather history database for the weather conditions in past years. The results will help you decide how hot, cold, wet, or windy it might be!

Date:

Astronomy

Aug. 27, 2013 Rise Set
Actual Time 6:19 AM BST 8:09 PM BST
Civil Twilight 5:44 AM BST 8:44 PM BST
Nautical Twilight 5:01 AM BST 9:26 PM BST
Astronomical Twilight 4:13 AM BST 10:14 PM BST
Moon 11:03 PM BST (8/27) 1:52 PM BST (8/27)
Length of Visible Light 14h 59m
Length of Day
13h 49m
Waning Gibbous, 59% of the Moon is Illuminated
Aug 27
Waning Gibbous
Aug 28
Last Quarter
Sep 5
New
Sep 12
First Quarter
Sep 19
Full

Hourly Weather History & Observations

Time (BST) Temp. Dew Point Humidity Pressure Visibility Wind Dir Wind Speed Gust Speed Precip Events Conditions
12:20 AM 60.8 °F 57.2 °F 88% 30.06 in 5.0 mi NNW 5.8 mph - N/A   Partly Cloudy
12:50 AM 59 °F 56 °F 88%  in - Calm Calm - -  
12:50 AM 59.0 °F 57.2 °F 94% 30.06 in 4.3 mi North 4.6 mph - N/A   Partly Cloudy
1:20 AM 59.0 °F 57.2 °F 94% 30.06 in 4.3 mi NNE 4.6 mph - N/A   Partly Cloudy
1:50 AM 59.0 °F 57.2 °F 94% 30.06 in 4.3 mi North 4.6 mph - N/A   Unknown
2:20 AM 57.2 °F 55.4 °F 94% 30.06 in 3.7 mi ENE 3.5 mph - N/A   Unknown
2:50 AM 55.4 °F 53.6 °F 94% 30.06 in 3.7 mi NE 4.6 mph - N/A   Unknown
5:20 AM 53.6 °F 53.6 °F 100% 30.06 in 1.2 mi Variable 2.3 mph - N/A   Scattered Clouds
5:50 AM 53.6 °F 51.8 °F 94% 30.06 in 1.2 mi Variable 3.5 mph - N/A   Partly Cloudy
6:20 AM 53.6 °F 51.8 °F 94% 30.06 in 1.2 mi Variable 3.5 mph - N/A   Mist
6:50 AM 53 °F 53 °F 98%  in - Calm Calm - -  
6:50 AM 53.6 °F 53.6 °F 100% 30.06 in 1.2 mi North 4.6 mph - N/A   Mist
7:20 AM 55.4 °F 53.6 °F 94% 30.06 in 0.6 mi NNW 4.6 mph - N/A Fog Fog
7:50 AM 55.4 °F 55.4 °F 100% 30.06 in 0.4 mi NNW 8.1 mph - N/A Fog Fog
8:20 AM 55.4 °F 55.4 °F 100% 30.06 in 1.2 mi NW 8.1 mph - N/A   Mostly Cloudy
8:50 AM 57.2 °F 57.2 °F 100% 30.09 in 1.6 mi NW 6.9 mph - N/A   Mostly Cloudy
9:20 AM 59.0 °F 57.2 °F 94% 30.09 in 2.5 mi NW 8.1 mph - N/A   Mostly Cloudy
9:50 AM 62 °F 58 °F 84%  in - Calm Calm - -  
9:50 AM 62.6 °F 59.0 °F 88% 30.09 in 3.7 mi NW 9.2 mph - N/A   Scattered Clouds
10:20 AM 64.4 °F 59.0 °F 83% 30.09 in 5.0 mi NW 8.1 mph - N/A   Partly Cloudy
10:50 AM 66.2 °F 59.0 °F 78% 30.06 in 5.6 mi NNW 5.8 mph - N/A   Partly Cloudy
11:20 AM 68.0 °F 59.0 °F 73% 30.06 in - NNW 4.6 mph - N/A   Clear
11:50 AM 69.8 °F 59.0 °F 68% 30.06 in - Variable 4.6 mph - N/A   Clear
12:20 PM 71.6 °F 59.0 °F 64% 30.06 in 6.2 mi Variable 3.5 mph - N/A   Partly Cloudy
12:50 PM 74 °F 57 °F 45%  in - Calm Calm - -  
12:50 PM 73.4 °F 57.2 °F 57% 30.06 in 6.2 mi North 4.6 mph - N/A   Partly Cloudy
1:20 PM 73.4 °F 57.2 °F 57% 30.06 in 6.2 mi Variable 4.6 mph - N/A   Partly Cloudy
1:50 PM 75.2 °F 55.4 °F 50% 30.06 in 6.2 mi Variable 3.5 mph - N/A   Partly Cloudy
2:20 PM 75.2 °F 55.4 °F 50% 30.06 in 6.2 mi North 6.9 mph - N/A   Partly Cloudy
2:50 PM 76 °F 52 °F 32%  in - Calm Calm - -  
2:50 PM 77.0 °F 55.4 °F 47% 30.06 in 6.2 mi North 8.1 mph - N/A   Partly Cloudy
3:20 PM 75.2 °F 60.8 °F 61% 30.06 in 6.2 mi NW 13.8 mph - N/A   Scattered Clouds
3:50 PM 73 °F 56 °F 44%  in - Calm Calm - -  
3:50 PM 73.4 °F 59.0 °F 61% 30.06 in 6.2 mi NNW 13.8 mph - N/A   Partly Cloudy
4:20 PM 73.4 °F 55.4 °F 53% 30.06 in 6.2 mi North 8.1 mph - N/A   Partly Cloudy
4:50 PM 75 °F 53 °F 36%  in - Calm Calm - -  
4:50 PM 75.2 °F 53.6 °F 47% 30.06 in 6.2 mi NNE 10.4 mph - N/A   Partly Cloudy
5:20 PM 73.4 °F 53.6 °F 50% 30.06 in 6.2 mi NE 8.1 mph - N/A   Partly Cloudy
5:50 PM 73 °F 53 °F 38%  in - Calm Calm - -  
5:50 PM 73.4 °F 53.6 °F 50% 30.06 in 6.2 mi NE 10.4 mph - N/A   Partly Cloudy
6:20 PM 71.6 °F 53.6 °F 53% 30.06 in 6.2 mi NNE 6.9 mph - N/A   Partly Cloudy
6:50 PM 71 °F 53 °F 43%  in - Calm Calm - -  
6:50 PM 71.6 °F 53.6 °F 53% 30.09 in 6.2 mi NNE 6.9 mph - N/A   Partly Cloudy
7:20 PM 71.6 °F 55.4 °F 57% 30.09 in - North 5.8 mph - N/A   Clear
7:50 PM 68 °F 54 °F 51%  in - Calm Calm - -  
7:50 PM 69.8 °F 55.4 °F 60% 30.09 in - North 4.6 mph - N/A   Clear
8:20 PM 66.2 °F 55.4 °F 68% 30.09 in - North 3.5 mph - N/A   Clear
8:50 PM 64 °F 55 °F 65%  in - Calm Calm - -  
8:50 PM 64.4 °F 55.4 °F 73% 30.09 in - North 2.3 mph - N/A   Clear
9:20 PM 64.4 °F 59.0 °F 83% 30.12 in - NW 6.9 mph - N/A   Clear
9:50 PM 61 °F 58 °F 85%  in - Calm Calm - -  
9:50 PM 62.6 °F 59.0 °F 88% 30.12 in - NW 4.6 mph - N/A   Clear
10:20 PM 60.8 °F 59.0 °F 94% 30.12 in - NW 4.6 mph - N/A   Clear
10:50 PM 59 °F 56 °F 88%  in - Calm Calm - -  
10:50 PM 60.8 °F 57.2 °F 88% 30.15 in - NW 5.8 mph - N/A   Clear
11:20 PM 59.0 °F 57.2 °F 94% 30.15 in - NW 5.8 mph - N/A   Clear
11:50 PM 58 °F 56 °F 93%  in - Calm Calm - -  
11:50 PM 59.0 °F 57.2 °F 94% 30.15 in - NW 6.9 mph - N/A   Clear